Time,TemperatureF,DewpointF,PressureIn,WindDirection,WindDirectionDegrees,WindSpeedMPH,WindSpeedGustMPH,Humidity,HourlyPrecipIn,Conditions,Clouds,dailyrainin,SoftwareType,DateUTC
2013-02-20 00:01:00,31.5,20.0,28.11,SSE,165,3.0,9.0,62,0.00,,,0.00,weatherlink.com 1.10,2013-02-20 05:01:00,
2013-02-20 00:16:00,31.0,18.0,28.11,SSW,200,1.0,12.0,59,0.00,,,0.00,weatherlink.com 1.10,2013-02-20 05:16:00,
2013-02-20 00:31:00,31.0,18.0,28.11,South,181,11.0,14.0,58,0.00,,,0.00,weatherlink.com 1.10,2013-02-20 05:31:00,
2013-02-20 00:46:00,30.8,18.0,28.11,SSE,153,3.0,11.0,60,0.00,,,0.00,weatherlink.com 1.10,2013-02-20 05:46:00,
2013-02-20 01:01:00,30.1,18.0,28.11,WNW,289,3.0,7.0,61,0.00,,,0.00,weatherlink.com 1.10,2013-02-20 06:01:00,
2013-02-20 01:16:00,29.5,17.0,28.11,South,186,10.0,18.0,59,0.00,,,0.00,weatherlink.com 1.10,2013-02-20 06:16:00,
2013-02-20 01:31:00,29.2,16.0,28.12,East,79,0.0,12.0,58,0.00,,,0.00,weatherlink.com 1.10,2013-02-20 06:31:00,
2013-02-20 01:46:00,28.8,16.0,28.13,SW,214,6.0,23.0,59,0.00,,,0.00,weatherlink.com 1.10,2013-02-20 06:46:00,
2013-02-20 02:01:00,28.5,15.0,28.13,South,174,1.0,13.0,58,0.00,,,0.00,weatherlink.com 1.10,2013-02-20 07:01:00,
2013-02-20 02:16:00,28.2,15.0,28.12,SW,218,7.0,15.0,58,0.00,,,0.00,weatherlink.com 1.10,2013-02-20 07:16:00,
2013-02-20 02:31:00,28.0,16.0,28.13,SE,138,8.0,16.0,60,0.00,,,0.00,weatherlink.com 1.10,2013-02-20 07:31:00,
2013-02-20 02:46:00,27.7,16.0,28.13,SE,134,0.0,11.0,61,0.00,,,0.00,weatherlink.com 1.10,2013-02-20 07:46:00,
2013-02-20 03:17:00,27.0,14.0,28.12,SSE,160,1.0,14.0,59,0.00,,,0.00,weatherlink.com 1.10,2013-02-20 08:17:00,
2013-02-20 03:32:00,26.8,14.0,28.13,West,280,2.0,14.0,58,0.00,,,0.00,weatherlink.com 1.10,2013-02-20 08:32:00,
2013-02-20 03:47:00,26.6,14.0,28.12,SSE,156,6.0,18.0,59,0.00,,,0.00,weatherlink.com 1.10,2013-02-20 08:47:00,
2013-02-20 04:02:00,26.6,15.0,28.12,WSW,237,1.0,7.0,62,0.00,,,0.00,weatherlink.com 1.10,2013-02-20 09:02:00,
2013-02-20 04:17:00,26.3,15.0,28.13,East,91,1.0,8.0,63,0.00,,,0.00,weatherlink.com 1.10,2013-02-20 09:17:00,
2013-02-20 04:32:00,25.9,14.0,28.13,South,182,8.0,10.0,62,0.00,,,0.00,weatherlink.com 1.10,2013-02-20 09:32:00,
2013-02-20 04:47:00,25.7,14.0,28.13,SE,141,1.0,14.0,61,0.00,,,0.00,weatherlink.com 1.10,2013-02-20 09:47:00,
2013-02-20 05:02:00,25.5,13.0,28.13,SW,222,6.0,11.0,60,0.00,,,0.00,weatherlink.com 1.10,2013-02-20 10:02:00,
2013-02-20 05:17:00,25.4,14.0,28.14,South,186,8.0,16.0,61,0.00,,,0.00,weatherlink.com 1.10,2013-02-20 10:17:00,
2013-02-20 05:32:00,25.2,13.0,28.15,West,270,3.0,10.0,61,0.00,,,0.00,weatherlink.com 1.10,2013-02-20 10:32:00,
2013-02-20 05:47:00,25.0,13.0,28.15,SW,219,11.0,15.0,61,0.00,,,0.00,weatherlink.com 1.10,2013-02-20 10:47:00,
2013-02-20 06:02:00,24.9,13.0,28.15,South,169,0.0,16.0,61,0.00,,,0.00,weatherlink.com 1.10,2013-02-20 11:02:00,
2013-02-20 06:17:00,24.7,13.0,28.15,ENE,58,1.0,24.0,61,0.00,,,0.00,weatherlink.com 1.10,2013-02-20 11:17:00,
2013-02-20 06:32:00,24.4,13.0,28.16,SE,146,0.0,14.0,61,0.00,,,0.00,weatherlink.com 1.10,2013-02-20 11:32:00,
2013-02-20 06:47:00,24.3,12.0,28.16,WSW,240,0.0,10.0,60,0.00,,,0.00,weatherlink.com 1.10,2013-02-20 11:47:00,
2013-02-20 07:02:00,24.2,12.0,28.17,East,79,0.0,17.0,60,0.00,,,0.00,weatherlink.com 1.10,2013-02-20 12:02:00,
2013-02-20 07:17:00,24.0,12.0,28.17,South,190,2.0,10.0,61,0.00,,,0.00,weatherlink.com 1.10,2013-02-20 12:17:00,
2013-02-20 07:32:00,23.9,12.0,28.17,NNW,330,0.0,12.0,60,0.00,,,0.00,weatherlink.com 1.10,2013-02-20 12:32:00,
2013-02-20 07:47:00,23.7,12.0,28.18,WNW,294,2.0,10.0,60,0.00,,,0.00,weatherlink.com 1.10,2013-02-20 12:47:00,
2013-02-20 08:02:00,23.8,12.0,28.19,SSW,200,1.0,9.0,61,0.00,,,0.00,weatherlink.com 1.10,2013-02-20 13:02:00,
2013-02-20 08:17:00,23.7,12.0,28.19,East,81,2.0,10.0,60,0.00,,,0.00,weatherlink.com 1.10,2013-02-20 13:17:00,
2013-02-20 08:32:00,23.7,12.0,28.19,SE,141,3.0,9.0,61,0.00,,,0.00,weatherlink.com 1.10,2013-02-20 13:32:00,
2013-02-20 08:47:00,24.0,11.0,28.19,North,351,2.0,4.0,59,0.00,,,0.00,weatherlink.com 1.10,2013-02-20 13:47:00,
2013-02-20 09:02:00,24.3,12.0,28.19,SSW,197,0.0,11.0,61,0.00,,,0.00,weatherlink.com 1.10,2013-02-20 14:02:00,
2013-02-20 09:17:00,24.7,12.0,28.20,WSW,240,0.0,10.0,59,0.00,,,0.00,weatherlink.com 1.10,2013-02-20 14:17:00,
2013-02-20 09:32:00,25.0,12.0,28.20,South,188,4.0,10.0,58,0.00,,,0.00,weatherlink.com 1.10,2013-02-20 14:32:00,
2013-02-20 09:47:00,25.6,11.0,28.20,WSW,245,5.0,12.0,55,0.00,,,0.00,weatherlink.com 1.10,2013-02-20 14:47:00,
2013-02-20 10:02:00,26.0,12.0,28.20,SSE,157,6.0,8.0,55,0.00,,,0.00,weatherlink.com 1.10,2013-02-20 15:02:00,
2013-02-20 10:17:00,26.6,12.0,28.21,SSE,160,3.0,13.0,54,0.00,,,0.00,weatherlink.com 1.10,2013-02-20 15:17:00,
2013-02-20 10:32:00,27.2,13.0,28.21,South,191,3.0,8.0,55,0.00,,,0.00,weatherlink.com 1.10,2013-02-20 15:32:00,
2013-02-20 10:47:00,27.5,13.0,28.21,NE,49,2.0,14.0,55,0.00,,,0.00,weatherlink.com 1.10,2013-02-20 15:47:00,
2013-02-20 11:02:00,27.4,13.0,28.21,South,174,1.0,7.0,54,0.00,,,0.00,weatherlink.com 1.10,2013-02-20 16:02:00,
2013-02-20 11:17:00,27.6,13.0,28.21,SSW,200,2.0,14.0,55,0.00,,,0.00,weatherlink.com 1.10,2013-02-20 16:17:00,
2013-02-20 11:33:00,28.8,13.0,28.21,South,174,12.0,16.0,51,0.00,,,0.00,weatherlink.com 1.10,2013-02-20 16:33:00,
2013-02-20 11:48:00,30.3,15.0,28.21,SSW,199,9.0,11.0,53,0.00,,,0.00,weatherlink.com 1.10,2013-02-20 16:48:00,
2013-02-20 12:03:00,31.2,14.0,28.21,NNW,330,0.0,11.0,50,0.00,,,0.00,weatherlink.com 1.10,2013-02-20 17:03:00,
2013-02-20 12:18:00,31.3,13.0,28.20,South,174,6.0,13.0,46,0.00,,,0.00,weatherlink.com 1.10,2013-02-20 17:18:00,
2013-02-20 12:33:00,30.5,14.0,28.20,SSW,207,6.0,17.0,50,0.00,,,0.00,weatherlink.com 1.10,2013-02-20 17:33:00,
2013-02-20 12:48:00,32.6,15.0,28.20,WSW,239,2.0,18.0,48,0.00,,,0.00,weatherlink.com 1.10,2013-02-20 17:48:00,
2013-02-20 13:03:00,33.1,14.0,28.19,South,177,0.0,8.0,46,0.00,,,0.00,weatherlink.com 1.10,2013-02-20 18:03:00,
2013-02-20 13:18:00,33.7,16.0,28.19,South,169,7.0,14.0,48,0.00,,,0.00,weatherlink.com 1.10,2013-02-20 18:18:00,
2013-02-20 13:33:00,33.2,15.0,28.19,SSE,167,10.0,16.0,48,0.00,,,0.00,weatherlink.com 1.10,2013-02-20 18:33:00,
2013-02-20 13:48:00,33.3,14.0,28.20,SW,233,5.0,21.0,46,0.00,,,0.00,weatherlink.com 1.10,2013-02-20 18:48:00,
2013-02-20 14:03:00,33.4,14.0,28.19,SW,228,4.0,17.0,45,0.00,,,0.00,weatherlink.com 1.10,2013-02-20 19:03:00,
2013-02-20 14:18:00,33.6,14.0,28.19,South,181,7.0,14.0,44,0.00,,,0.00,weatherlink.com 1.10,2013-02-20 19:18:00,
2013-02-20 14:33:00,33.9,14.0,28.20,South,190,9.0,18.0,44,0.00,,,0.00,weatherlink.com 1.10,2013-02-20 19:33:00,
2013-02-20 14:48:00,33.8,13.0,28.21,SSW,200,6.0,16.0,43,0.00,,,0.00,weatherlink.com 1.10,2013-02-20 19:48:00,
2013-02-20 15:03:00,33.6,13.0,28.22,SW,217,0.0,13.0,43,0.00,,,0.00,weatherlink.com 1.10,2013-02-20 20:03:00,
2013-02-20 15:33:00,32.7,14.0,28.22,SSW,201,13.0,13.0,47,0.00,,,0.00,weatherlink.com 1.10,2013-02-20 20:33:00,
2013-02-20 15:48:00,31.4,13.0,28.23,WSW,255,0.0,11.0,46,0.00,,,0.00,weatherlink.com 1.10,2013-02-20 20:48:00,
2013-02-20 16:03:00,31.8,14.0,28.24,SSW,203,0.0,14.0,48,0.00,,,0.00,weatherlink.com 1.10,2013-02-20 21:03:00,
2013-02-20 16:18:00,31.1,13.0,28.24,SSW,192,0.0,4.0,48,0.00,,,0.00,weatherlink.com 1.10,2013-02-20 21:18:00,
2013-02-20 16:33:00,30.6,13.0,28.25,NNW,338,1.0,5.0,49,0.00,,,0.00,weatherlink.com 1.10,2013-02-20 21:33:00,
2013-02-20 16:48:00,29.7,12.0,28.26,WSW,240,1.0,3.0,48,0.00,,,0.00,weatherlink.com 1.10,2013-02-20 21:48:00,
2013-02-20 17:03:00,29.0,12.0,28.26,SSW,197,0.0,6.0,49,0.00,,,0.00,weatherlink.com 1.10,2013-02-20 22:03:00,
2013-02-20 17:18:00,28.3,12.0,28.27,NNE,31,2.0,6.0,51,0.00,,,0.00,weatherlink.com 1.10,2013-02-20 22:18:00,
2013-02-20 17:33:00,27.3,12.0,28.27,South,184,4.0,8.0,53,0.00,,,0.00,weatherlink.com 1.10,2013-02-20 22:33:00,
2013-02-20 17:48:00,26.7,12.0,28.27,South,181,2.0,4.0,54,0.00,,,0.00,weatherlink.com 1.10,2013-02-20 22:48:00,
2013-02-20 18:03:00,26.0,11.0,28.28,NW,308,0.0,2.0,54,0.00,,,0.00,weatherlink.com 1.10,2013-02-20 23:03:00,
2013-02-20 18:18:00,25.2,12.0,28.28,South,170,0.0,2.0,58,0.00,,,0.00,weatherlink.com 1.10,2013-02-20 23:18:00,
2013-02-20 18:33:00,24.7,12.0,28.30,SSE,167,0.0,2.0,60,0.00,,,0.00,weatherlink.com 1.10,2013-02-20 23:33:00,
2013-02-20 18:48:00,24.8,12.0,28.30,North,9,0.0,3.0,58,0.00,,,0.00,weatherlink.com 1.10,2013-02-20 23:48:00,
2013-02-20 19:03:00,25.0,12.0,28.30,North,11,0.0,5.0,59,0.00,,,0.00,weatherlink.com 1.10,2013-02-21 00:03:00,
2013-02-20 19:18:00,24.8,12.0,28.30,North,357,0.0,4.0,59,0.00,,,0.00,weatherlink.com 1.10,2013-02-21 00:18:00,
2013-02-20 19:33:00,24.5,12.0,28.30,SW,228,0.0,6.0,58,0.00,,,0.00,weatherlink.com 1.10,2013-02-21 00:33:00,
2013-02-20 19:48:00,23.6,12.0,28.31,South,188,0.0,1.0,61,0.00,,,0.00,weatherlink.com 1.10,2013-02-21 00:48:00,
2013-02-20 20:03:00,22.9,12.0,28.31,SSW,201,0.0,0.0,63,0.00,,,0.00,weatherlink.com 1.10,2013-02-21 01:03:00,
2013-02-20 20:18:00,23.4,12.0,28.31,ESE,114,0.0,8.0,61,0.00,,,0.00,weatherlink.com 1.10,2013-02-21 01:18:00,
2013-02-20 20:33:00,23.5,11.0,28.32,ENE,60,0.0,4.0,60,0.00,,,0.00,weatherlink.com 1.10,2013-02-21 01:33:00,
2013-02-20 20:48:00,22.8,12.0,28.32,SW,219,0.0,3.0,63,0.00,,,0.00,weatherlink.com 1.10,2013-02-21 01:48:00,
2013-02-20 21:03:00,22.3,12.0,28.33,ENE,63,0.0,1.0,66,0.00,,,0.00,weatherlink.com 1.10,2013-02-21 02:03:00,
2013-02-20 21:33:00,22.3,13.0,28.33,ENE,73,0.0,2.0,67,0.00,,,0.00,weatherlink.com 1.10,2013-02-21 02:33:00,
2013-02-20 21:48:00,22.0,12.0,28.33,South,183,1.0,3.0,66,0.00,,,0.00,weatherlink.com 1.10,2013-02-21 02:48:00,
2013-02-20 22:19:00,21.8,12.0,28.34,SW,233,4.0,5.0,67,0.00,,,0.00,weatherlink.com 1.10,2013-02-21 03:19:00,
2013-02-20 22:34:00,21.6,12.0,28.34,SW,228,0.0,2.0,66,0.00,,,0.00,weatherlink.com 1.10,2013-02-21 03:34:00,
2013-02-20 22:49:00,21.6,12.0,28.33,SW,228,3.0,4.0,67,0.00,,,0.00,weatherlink.com 1.10,2013-02-21 03:49:00,
2013-02-20 23:04:00,21.5,11.0,28.32,SW,215,0.0,2.0,65,0.00,,,0.00,weatherlink.com 1.10,2013-02-21 04:04:00,
2013-02-20 23:19:00,20.7,11.0,28.32,WSW,238,0.0,3.0,66,0.00,,,0.00,weatherlink.com 1.10,2013-02-21 04:19:00,
2013-02-20 23:34:00,20.4,12.0,28.32,West,267,1.0,4.0,69,0.00,,,0.00,weatherlink.com 1.10,2013-02-21 04:34:00,
2013-02-20 23:49:00,20.0,11.0,28.32,SSW,207,0.0,1.0,69,0.00,,,0.00,weatherlink.com 1.10,2013-02-21 04:49:00,